Location: The Jewett Observatory
(46.7288°N, 117.1525°W)
Time: 17:54:48
(UTC-07:00)

Amateur Radio Satellites - All Passes

Search period start: 29 July 2014 17:24
Search period end: 30 July 2014 17:24
Location: The Jewett Observatory, 46.7288°N, 117.1525°W

Satellite Date Start Highest point End Downlink Frequencies (MHz)
Time Altitude Azimuth
OPAL 29 Jul 17:29:28 17:34:31 72° 290° (WNW) 17:39:37 ?
JAS-2 29 Jul 17:44:39 17:52:18 66° 70° (ENE) 17:59:23 435.800 - 435.900 CW/SSB, 435.910 FM
STRAND 1 29 Jul 18:16:56 18:19:09 13° 87° (E) 18:21:21 ?
SO-50 29 Jul 18:19:38 18:21:18 12° 19° (NNE) 18:22:57 436.795 FM
SO-67 29 Jul 18:30:34 18:33:38 30° 70° (ENE) 18:36:43 435.3500 MHz FM
AO-7 29 Jul 18:31:57 18:35:51 14° 276° (W) 18:39:47 29.400 - 29.500 MHz
HO-68 29 Jul 18:32:31 18:35:45 14° 44° (NE) 18:38:58 435.675 MHz FM
Hamsat 29 Jul 18:34:30 18:38:22 36° 263° (W) 18:42:17 145.90 MHz
RS-15 29 Jul 18:50:58 19:00:21 31° 9° (N) 19:09:51 29.354 - 29.394 USB, Beacon 29.352 USB
OPAL 29 Jul 19:10:31 19:12:34 12° 308° (NW) 19:14:37 ?
JAS-2 29 Jul 19:31:05 19:37:41 30° 268° (W) 19:43:56 435.800 - 435.900 CW/SSB, 435.910 FM
STRAND 1 29 Jul 19:53:55 19:59:04 89° 287° (WNW) 20:04:10 ?
SO-50 29 Jul 19:58:55 20:03:15 34° 42° (NE) 20:07:38 436.795 FM
SO-67 29 Jul 20:04:15 20:06:46 19° 267° (W) 20:09:18 435.3500 MHz FM
Oscar 11 29 Jul 20:04:53 20:05:32 10° 57° (ENE) 20:06:11 145.825 FM, Beacon 2401.500 USB
HO-68 29 Jul 20:15:01 20:21:57 54° 65° (ENE) 20:28:53 435.675 MHz FM
UOSAT-12 29 Jul 20:15:55 20:17:47 12° 20° (NNE) 20:19:38 437.025 FM, 437.400 FM
UKube-1 29 Jul 20:52:29 20:56:46 57° 71° (ENE) 21:01:04 145.840 MHz, 145.915 MHz
MaSat-1 29 Jul 21:03:09 21:07:09 46° 111° (ESE) 21:11:45 437.345 MHz
RS-15 29 Jul 21:04:56 21:15:43 56° 41° (NE) 21:26:46 29.354 - 29.394 USB, Beacon 29.352 USB
STRAND 1 29 Jul 21:34:47 21:37:31 15° 304° (NW) 21:40:15 ?
Oscar 11 29 Jul 21:36:40 21:40:58 81° 75° (ENE) 21:45:18 145.825 FM, Beacon 2401.500 USB
SO-50 29 Jul 21:39:27 21:43:55 41° 241° (WSW) 21:48:26 436.795 FM
UOSAT-12 29 Jul 21:54:56 21:59:19 36° 42° (NE) 22:03:39 437.025 FM, 437.400 FM
FUNcube-1 29 Jul 22:00:50 22:05:02 55° 72° (ENE) 22:09:10 145.950 - 145.970 MHz USB
HO-68 29 Jul 22:03:33 22:09:55 34° 264° (W) 22:16:20 435.675 MHz FM
UKube-1 29 Jul 22:30:37 22:33:20 16° 269° (W) 22:36:04 145.840 MHz, 145.915 MHz
MaSat-1 29 Jul 22:40:56 22:44:44 27° 314° (NW) 22:48:58 437.345 MHz
AO-40 29 Jul 22:59:44 03:06:12 29° 188° (S) 07:57:40 Beacon 2401.320
Oscar 11 29 Jul 23:16:37 23:17:45 11° 273° (W) 23:18:52 145.825 FM, Beacon 2401.500 USB
RS-15 29 Jul 23:17:36 23:28:10 55° 245° (WSW) 23:39:08 29.354 - 29.394 USB, Beacon 29.352 USB
PCSat 29 Jul 23:30:35 23:33:46 16° 104° (ESE) 23:36:58 145.825 MHz
UOSAT-12 29 Jul 23:35:07 23:39:31 39° 242° (WSW) 23:43:52 437.025 FM, 437.400 FM
FUNcube-1 29 Jul 23:39:11 23:41:47 16° 269° (W) 23:44:21 145.950 - 145.970 MHz USB
ISS 29 Jul 23:49:08 23:52:22 50° 147° (SSE) 23:55:38 145.800 FM
Oscar 10/S400 29 Jul 23:49:52 00:17:14 55° 172° (S) 08:41:18 145.825 - 145.975 CW/USB, Beacon 145.810 USB
Sapphire 30 Jul 00:37:58 00:43:11 52° 116° (ESE) 00:48:27 437.095 MHz 1200 baud AX-25 AFSK
Oscar 19 30 Jul 01:01:00 01:02:45 12° 86° (E) 01:04:30 437.125 CW, 437.150 USB
PCSat 30 Jul 01:11:02 01:16:27 84° 303° (WNW) 01:21:56 145.825 MHz
ISS 30 Jul 01:25:55 01:29:09 44° 346° (NNW) 01:32:24 145.800 FM
Oscar 16 30 Jul 01:27:49 01:31:47 22° 92° (E) 01:35:44 437.025 USB, Beacon 2401.1428
RS-15 30 Jul 01:35:07 01:37:49 11° 268° (W) 01:40:33 29.354 - 29.394 USB, Beacon 29.352 USB
ITAMSAT 1 30 Jul 01:51:37 01:54:47 16° 89° (E) 01:57:55 435.822 SSB
Uribyol 2 30 Jul 02:10:01 02:14:13 25° 93° (E) 02:18:24 436.500 FM
AO-27 30 Jul 02:10:24 02:14:35 24° 93° (E) 02:18:43 436.795 MHz FM
Sapphire 30 Jul 02:22:03 02:26:52 32° 316° (NW) 02:31:43 437.095 MHz 1200 baud AX-25 AFSK
JAS-1B 30 Jul 02:36:50 02:45:21 37° 90° (E) 02:52:46 435.800 - 435.900 CW/SSB
Oscar 19 30 Jul 02:37:41 02:42:53 84° 104° (ESE) 02:48:05 437.125 CW, 437.150 USB
Gurwin Techsat 1B 30 Jul 02:39:26 02:43:14 20° 90° (E) 02:47:00 435.225 FM
AO-Echo 30 Jul 02:45:16 02:50:14 50° 99° (E) 02:54:59 ?
PCSat 30 Jul 02:56:42 03:00:42 20° 325° (NW) 03:04:43 145.825 MHz
ISS 30 Jul 03:03:12 03:06:20 35° 6° (N) 03:09:29 145.800 FM
Oscar 16 30 Jul 03:06:26 03:11:28 54° 290° (WNW) 03:16:30 437.025 USB, Beacon 2401.1428
OPAL 30 Jul 03:09:08 03:13:44 41° 65° (ENE) 03:18:23 ?
ITAMSAT 1 30 Jul 03:29:40 03:34:51 74° 287° (WNW) 03:39:59 435.822 SSB
Uribyol 2 30 Jul 03:48:59 03:53:57 48° 291° (WNW) 03:58:52 436.500 FM
AO-27 30 Jul 03:49:21 03:54:22 50° 291° (WNW) 03:59:20 436.795 MHz FM
TMSAT-1 30 Jul 03:53:08 03:58:24 62° 101° (ESE) 04:03:37 436.925 FM
Sapphire 30 Jul 04:10:40 04:12:07 11° 341° (NNW) 04:13:33 437.095 MHz 1200 baud AX-25 AFSK
Gurwin Techsat 1B 30 Jul 04:18:24 04:23:40 63° 289° (WNW) 04:28:53 435.225 FM
Oscar 19 30 Jul 04:18:29 04:21:34 16° 303° (WNW) 04:24:40 437.125 CW, 437.150 USB
AO-Echo 30 Jul 04:24:39 04:28:41 24° 298° (WNW) 04:32:36 ?
JAS-1B 30 Jul 04:27:00 04:36:22 62° 294° (WNW) 04:44:26 435.800 - 435.900 CW/SSB
AO-7 30 Jul 04:31:42 04:39:16 37° 97° (E) 04:46:44 29.400 - 29.500 MHz
KITSAT 1 30 Jul 04:38:16 04:43:07 17° 100° (E) 04:47:58 435.175 FM
ISS 30 Jul 04:39:59 04:43:21 83° 25° (NNE) 04:46:44 145.800 FM
Uosat F 30 Jul 04:43:18 04:48:03 41° 98° (E) 04:52:46 435.120 FM
OPAL 30 Jul 04:48:32 04:52:45 28° 263° (W) 04:57:01 ?
ITAMSAT 1 30 Jul 05:11:22 05:13:27 13° 306° (NW) 05:15:33 435.822 SSB
MaSat-1 30 Jul 05:18:29 05:23:14 32° 49° (NE) 05:27:51 437.345 MHz
TMSAT-1 30 Jul 05:33:55 05:37:53 22° 300° (WNW) 05:41:51 436.925 FM
STRAND 1 30 Jul 05:34:47 05:39:01 27° 63° (ENE) 05:43:16 ?
Gurwin Techsat 1B 30 Jul 06:01:10 06:02:36 11° 308° (NW) 06:04:03 435.225 FM
Hamsat 30 Jul 06:17:08 06:21:00 31° 96° (E) 06:24:52 145.90 MHz
ISS 30 Jul 06:17:19 06:19:44 19° 223° (SW) 06:22:09 145.800 FM
JAS-1B 30 Jul 06:18:48 06:24:52 20° 317° (NW) 06:30:33 435.800 - 435.900 CW/SSB
Uosat F 30 Jul 06:22:25 06:26:42 29° 296° (WNW) 06:30:57 435.120 FM
AO-7 30 Jul 06:24:17 06:32:24 59° 297° (WNW) 06:40:28 29.400 - 29.500 MHz
KITSAT 1 30 Jul 06:29:07 06:37:12 77° 121° (ESE) 06:45:18 435.175 FM
PCSat 30 Jul 06:31:35 06:32:40 11° 18° (NNE) 06:33:46 145.825 MHz
JAS-2 30 Jul 06:37:29 06:43:03 39° 95° (E) 06:48:05 435.800 - 435.900 CW/SSB, 435.910 FM
MaSat-1 30 Jul 06:55:42 07:00:48 48° 249° (WSW) 07:05:38 437.345 MHz
Saudisat 1A 30 Jul 06:55:48 06:59:31 27° 115° (ESE) 07:03:14 436.775 MHz
STRAND 1 30 Jul 07:13:02 07:17:59 47° 261° (W) 07:22:57 ?
SO-67 30 Jul 07:24:37 07:27:32 24° 95° (E) 07:30:25 435.3500 MHz FM
Sapphire 30 Jul 07:40:17 07:44:09 19° 34° (NE) 07:48:00 437.095 MHz 1200 baud AX-25 AFSK
Hamsat 30 Jul 07:53:13 07:56:54 28° 293° (WNW) 08:00:36 145.90 MHz
PCSat 30 Jul 08:13:14 08:17:59 30° 42° (NE) 08:22:43 145.825 MHz
AO-7 30 Jul 08:18:39 08:23:31 17° 320° (NW) 08:28:23 29.400 - 29.500 MHz
JAS-2 30 Jul 08:22:43 08:28:06 34° 298° (WNW) 08:32:59 435.800 - 435.900 CW/SSB, 435.910 FM
KITSAT 1 30 Jul 08:26:02 08:33:21 36° 324° (NW) 08:40:43 435.175 FM
Saudisat 1A 30 Jul 08:34:41 08:38:55 44° 314° (NW) 08:43:11 436.775 MHz
SO-67 30 Jul 08:57:43 09:00:32 23° 292° (WNW) 09:03:20 435.3500 MHz FM
Sapphire 30 Jul 09:23:01 09:28:29 78° 56° (NE) 09:33:54 437.095 MHz 1200 baud AX-25 AFSK
Oscar 11 30 Jul 09:23:25 09:25:10 12° 88° (E) 09:26:55 145.825 FM, Beacon 2401.500 USB
HO-68 30 Jul 09:27:00 09:33:44 42° 98° (E) 09:40:24 435.675 MHz FM
PCSat 30 Jul 09:56:25 10:01:45 57° 243° (WSW) 10:07:02 145.825 MHz
UKube-1 30 Jul 10:13:59 10:18:21 71° 103° (ESE) 10:22:41 145.840 MHz, 145.915 MHz
Saudisat 1A 30 Jul 10:17:45 10:19:39 12° 336° (NNW) 10:21:32 436.775 MHz
KITSAT 1 30 Jul 10:25:56 10:31:32 20° 353° (N) 10:37:07 435.175 FM
Oscar 11 30 Jul 10:57:32 11:01:53 74° 286° (WNW) 11:06:12 145.825 FM, Beacon 2401.500 USB
Sapphire 30 Jul 11:07:44 11:11:16 18° 255° (WSW) 11:14:47 437.095 MHz 1200 baud AX-25 AFSK
HO-68 30 Jul 11:14:47 11:21:29 45° 298° (WNW) 11:28:09 435.675 MHz FM
FUNcube-1 30 Jul 11:23:14 11:27:25 81° 103° (ESE) 11:31:39 145.950 - 145.970 MHz USB
RS-15 30 Jul 11:36:52 11:43:53 20° 99° (E) 11:50:47 29.354 - 29.394 USB, Beacon 29.352 USB
JAS-1B 30 Jul 11:38:37 11:43:06 14° 36° (NE) 11:47:37 435.800 - 435.900 CW/SSB
UKube-1 30 Jul 11:51:37 11:54:02 15° 301° (WNW) 11:56:25 145.840 MHz, 145.915 MHz
SO-50 30 Jul 11:57:14 12:01:12 32° 117° (ESE) 12:05:15 436.795 FM
Oscar 19 30 Jul 12:19:40 12:23:43 24° 62° (ENE) 12:27:47 437.125 CW, 437.150 USB
KITSAT 1 30 Jul 12:23:49 12:30:14 25° 23° (NNE) 12:36:38 435.175 FM
AO-Echo 30 Jul 12:24:51 12:27:46 15° 56° (NE) 12:30:40 ?
Oscar 16 30 Jul 12:47:24 12:52:11 42° 68° (ENE) 12:57:00 437.025 USB, Beacon 2401.1428
FUNcube-1 30 Jul 13:01:39 13:03:15 12° 301° (WNW) 13:04:51 145.950 - 145.970 MHz USB
HO-68 30 Jul 13:05:33 13:07:26 11° 320° (NW) 13:09:18 435.675 MHz FM
ITAMSAT 1 30 Jul 13:11:54 13:16:32 34° 65° (ENE) 13:21:11 435.822 SSB
JAS-1B 30 Jul 13:22:26 13:30:58 43° 59° (ENE) 13:40:03 435.800 - 435.900 CW/SSB
Uribyol 2 30 Jul 13:30:29 13:35:28 50° 69° (ENE) 13:40:29 436.500 FM
AO-27 30 Jul 13:31:06 13:36:07 49° 69° (ENE) 13:41:08 436.795 MHz FM
SO-50 30 Jul 13:37:28 13:41:41 39° 316° (NW) 13:46:01 436.795 FM
TMSAT-1 30 Jul 13:39:00 13:42:46 20° 59° (ENE) 13:46:33 436.925 FM
Saudisat 1A 30 Jul 13:40:41 13:42:58 14° 26° (NNE) 13:45:14 436.775 MHz
RS-15 30 Jul 13:43:13 13:54:16 76° 121° (ESE) 14:05:09 29.354 - 29.394 USB, Beacon 29.352 USB
AO-7 30 Jul 13:45:12 13:50:24 19° 42° (NE) 13:55:36 29.400 - 29.500 MHz
UOSAT-12 30 Jul 13:48:53 13:52:59 32° 116° (ESE) 13:57:09 437.025 FM, 437.400 FM
Oscar 19 30 Jul 13:57:47 14:02:45 52° 260° (W) 14:07:46 437.125 CW, 437.150 USB
AO-Echo 30 Jul 14:00:26 14:05:45 85° 75° (ENE) 14:11:06 ?
Gurwin Techsat 1B 30 Jul 14:03:01 14:07:56 40° 67° (ENE) 14:12:53 435.225 FM
KITSAT 1 30 Jul 14:19:22 14:27:25 62° 49° (NE) 14:35:23 435.175 FM
Uosat F 30 Jul 14:24:13 14:26:20 13° 54° (NE) 14:28:27 435.120 FM
Oscar 16 30 Jul 14:27:19 14:31:41 28° 266° (W) 14:36:05 437.025 USB, Beacon 2401.1428
ITAMSAT 1 30 Jul 14:51:11 14:55:59 37° 263° (W) 15:00:48 435.822 SSB
Uribyol 2 30 Jul 15:11:03 15:15:13 24° 267° (W) 15:19:24 436.500 FM
AO-27 30 Jul 15:11:37 15:15:52 25° 267° (W) 15:20:08 436.795 MHz FM
JAS-1B 30 Jul 15:12:02 15:21:01 61° 261° (W) 15:30:52 435.800 - 435.900 CW/SSB
TMSAT-1 30 Jul 15:16:55 15:22:11 68° 258° (WSW) 15:27:30 436.925 FM
Saudisat 1A 30 Jul 15:19:13 15:23:33 52° 48° (NE) 15:27:51 436.775 MHz
SO-50 30 Jul 15:21:43 15:23:33 12° 339° (NNW) 15:25:25 436.795 FM
UOSAT-12 30 Jul 15:28:40 15:33:03 41° 316° (NW) 15:37:32 437.025 FM, 437.400 FM
AO-7 30 Jul 15:33:26 15:41:38 63° 64° (ENE) 15:49:51 29.400 - 29.500 MHz
AO-Echo 30 Jul 15:42:22 15:45:11 14° 273° (W) 15:48:01 ?
Gurwin Techsat 1B 30 Jul 15:43:20 15:48:00 31° 265° (W) 15:52:42 435.225 FM
RS-15 30 Jul 15:57:11 16:07:33 44° 328° (NNW) 16:17:55 29.354 - 29.394 USB, Beacon 29.352 USB
Uosat F 30 Jul 15:59:15 16:04:17 77° 73° (ENE) 16:09:21 435.120 FM
KITSAT 1 30 Jul 16:15:15 16:22:27 37° 250° (WSW) 16:29:36 435.175 FM
JAS-2 30 Jul 16:51:17 16:57:47 32° 61° (ENE) 17:03:50 435.800 - 435.900 CW/SSB, 435.910 FM
OPAL 30 Jul 16:54:17 16:59:18 57° 103° (ESE) 17:04:21 ?
Saudisat 1A 30 Jul 16:59:27 17:02:50 22° 246° (WSW) 17:06:11 436.775 MHz
JAS-1B 30 Jul 17:08:57 17:13:38 15° 283° (WNW) 17:18:31 435.800 - 435.900 CW/SSB
UOSAT-12 30 Jul 17:12:20 17:14:29 13° 338° (NNW) 17:16:39 437.025 FM, 437.400 FM
Hamsat 30 Jul 17:13:26 17:17:09 32° 68° (ENE) 17:20:54 145.90 MHz
